Terminal Aerodrome Forecast
Issued by NWS

Home | Current Version | Previous Version | Text Only | Print | Product List | Glossary On
Versions: 1 2 3 4 5 6 7 8 9 10 11 12 13 14 15 16 17 18 19 20 21 22 23 24 25 26
000
FTUS44 KFWD 011100
TAFFTW
TAF
KFTW 011127Z 0112/0212 18010KT P6SM SCT014
     FM011300 18010KT P6SM BKN014
     FM011500 17013KT P6SM SCT050
     FM021100 18011KT P6SM OVC012=

USA.gov is the U.S. government's official web portal to all federal, state and local government web resources and services.